GALILEO 17

Last updated on Dec. 14, 2016, 12:15 a.m. UTC

1 41861U 16069C   16347.80550543  .00000081  00000-0  00000+0 0  9991
2 41861  54.5760 197.5925 0003459  38.4203 321.6976  1.72627096   428
UTC
Height (km)
Latitude
Longitude
Inclination
Orbital Period
UTC large
Height (km)
Speed (km/s)
/
Latitude / Longitude
Inclination (degrees)
Orbital Period (minutes)
Azimuth
Elevation
Range (km)
Doppler Factor
iOS Compass Heading
iOS Angle

Next 30 passes for location: Hong Kong

Rise time Rise Azimuth (degrees) Set time Set Azimuth (degrees) Duration Max altitude (degrees)

No matching passes for this satellites